Probability
0 0 0 0 0 0 0 0 0 0 1 3 5 7 8 8 11 14 16 17 17 17 17 18 20 21 21 21 20 19 20 21 21 21 22 21 16 12 11 10 11 11 9 7
0 0 0 0 0 0 0 0 0 1 2 3 3 5 7 8 10 12 14 15 15 16 17 18 19 20 20 20 20 20 21 22 22 22 23 21 16 11 11 11 11 11 9 7
0 0 0 0 0 0 0 0 0 1 2 2 1 2 5 7 7 9 10 11 12 15 17 17 18 18 17 18 21 22 22 22 20 21 22 20 15 12 11 11 11 10 9 7
0 0 0 0 0 0 0 0 0 0 1 1 0 1 3 3 4 6 7 8 11 14 15 16 16 16 15 16 19 21 21 20 18 18 20 20 17 14 12 11 10 9 8 7
0 0 0 0 0 0 0 0 0 0 0 0 0 0 1 1 1 3 5 8 12 13 13 15 16 16 14 14 16 19 20 18 16 17 19 19 17 14 11 9 8 8 7 7
0 0 0 0 0 0 0 0 0 0 0 0 0 0 0 0 0 1 3 8 12 13 13 14 16 16 14 13 15 17 17 16 15 16 17 16 14 12 9 7 7 7 7 6
0 0 0 0 0 0 0 0 0 0 0 0 0 0 0 0 0 1 2 7 11 13 14 16 16 16 14 14 14 14 15 14 14 14 14 13 11 10 8 7 7 8 7 6
0 0 0 0 0 0 0 0 0 0 0 0 0 0 0 0 1 2 3 5 10 13 15 17 16 15 14 13 12 12 12 13 13 12 11 9 9 9 8 6 6 7 7 6
0 0 0 0 0 0 0 0 0 0 0 0 0 0 0 0 2 4 4 5 8 13 15 16 15 14 12 10 9 8 8 9 11 11 9 8 8 7 6 5 5 6 6 6
0 0 0 0 0 0 0 0 0 0 0 0 0 0 0 0 2 4 5 4 6 10 12 13 13 12 10 8 6 5 5 6 9 9 8 7 6 4 3 4 3 3 4 5
0 0 0 0 0 0 0 0 0 0 0 0 0 0 0 0 0 2 4 3 3 6 8 8 8 9 8 6 4 4 5 5 6 6 6 5 4 2 1 1 1 1 2 3
0 0 0 0 0 0 0 0 0 0 0 0 0 0 0 0 0 1 3 3 3 3 4 3 3 4 5 5 5 5 4 4 4 4 3 3 3 2 1 0 0 0 0 1
0 0 0 0 0 0 0 0 0 0 0 0 0 0 0 0 1 2 3 4 4 2 1 1 0 1 2 4 5 4 3 3 3 3 3 3 3 2 1 0 0 0 0 0
0 0 0 0 0 0 0 0 0 0 0 0 0 0 0 0 1 2 3 4 4 2 1 1 0 0 1 3 4 3 3 3 3 3 3 3 3 1 0 0 0 0 0 0
0 0 0 0 0 0 0 0 0 0 0 0 0 0 0 0 0 1 1 2 3 3 2 2 1 1 2 2 2 3 3 3 3 3 3 3 2 1 0 0 0 0 0 0
0 0 0 0 0 0 0 0 0 0 0 0 0 0 0 0 0 0 0 1 3 3 3 2 1 1 2 1 1 2 3 3 3 3 2 1 1 0 0 0 0 0 0 0
0 0 0 0 0 0 0 0 0 0 0 0 0 0 0 0 0 0 0 1 2 2 2 2 1 1 1 0 0 1 1 2 2 1 1 0 0 0 0 0 0 0 0 0
0 0 0 0 0 0 0 0 0 0 0 0 0 0 0 0 0 0 0 0 1 1 1 1 0 0 0 0 0 0 0 1 1 0 0 0 0 0 0 0 0 0 0 0
0 0 0 0 0 0 0 0 0 0 0 0 0 0 0 0 0 0 0 0 0 0 0 0 0 0 0 0 0 0 0 0 0 0 0 0 0 0 0 0 0 0 0 0
0 0 0 0 0 0 0 0 0 0 0 0 0 0 0 0 0 0 0 0 0 0 0 0 0 0 0 0 0 0 0 0 0 0 0 0 0 0 0 0 0 0 0 0
0 0 0 0 0 0 0 0 0 0 0 0 0 0 0 0 0 0 0 0 0 0 0 0 0 0 0 0 0 0 0 0 0 0 0 0 0 0 0 0 0 0 0 0
0 0 0 0 0 0 0 0 0 0 0 0 0 0 0 0 0 0 0 0 0 0 0 0 0 0 0 0 0 0 0 0 0 0 0 0 0 0 0 0 0 0 0 0
0 0 0 0 0 0 0 0 0 0 0 0 0 0 0 0 0 0 0 0 0 0 0 0 0 0 0 0 0 0 0 0 0 0 0 0 0 0 0 0 0 0 0 0
0 0 0 0 0 0 0 0 0 0 0 0 0 0 0 0 0 0 0 0 0 0 0 0 0 0 0 0 0 0 0 0 0 0 0 0 0 0 0 0 0 0 0 0
0 0 0 0 0 0 0 0 0 0 0 0 0 0 0 0 0 0 0 0 0 0 0 0 0 0 0 0 0 0 0 0 0 0 0 0 0 0 0 0 0 0 0 0
0 0 0 0 0 0 0 0 0 0 0 0 0 0 0 0 0 0 0 0 0 0 0 0 0 0 0 0 0 0 0 0 0 0 0 0 0 0 0 0 0 0 0 0
Wind_Speed
3 4 0 4 5 4 2 2 4 5 3 0 3 4 5 3 3 4 4 4 5 5 4 4 4 5 5 5 5 5 5 4 4 3 3 3 2 1 0 0 0 1 1 1
5 2 5 3 2 2 2 2 3 4 1 1 2 4 3 3 5 5 6 6 6 5 4 4 4 5 6 6 6 5 5 5 4 4 3 2 2 2 1 0 0 1 1 1
2 5 1 1 0 1 2 4 4 3 2 3 1 5 3 3 2 3 4 5 5 7 7 6 6 5 5 5 6 5 5 4 4 4 3 2 2 2 1 1 0 0 0 1
2 4 1 1 2 2 4 4 4 2 1 2 0 3 6 3 3 4 5 5 6 5 6 6 6 5 5 4 4 4 4 4 3 4 4 4 3 2 2 1 1 0 0 0
4 2 1 3 4 4 4 1 1 1 2 1 2 1 8 2 4 6 6 6 5 6 6 6 6 6 4 4 4 3 4 4 3 4 4 4 3 2 1 1 1 0 1 1
5 3 2 3 2 1 1 5 6 5 4 1 2 2 7 4 6 5 4 5 5 5 6 5 5 5 4 4 4 4 4 3 2 3 3 4 4 3 2 1 1 0 0 0
7 5 2 1 1 2 4 5 5 5 4 5 2 2 9 6 4 5 5 5 5 5 6 6 6 6 5 5 5 5 4 3 3 3 3 3 3 3 3 2 2 2 1 1
3 7 4 1 3 3 2 6 6 3 4 5 2 5 8 3 2 2 2 3 3 4 5 6 6 6 6 6 5 5 5 3 3 2 2 2 2 2 2 2 2 3 2 2
2 7 5 3 2 4 3 2 4 5 1 2 5 6 8 1 2 2 1 0 2 3 4 5 5 5 5 5 5 5 5 4 3 3 2 2 2 2 2 1 1 2 2 2
3 5 6 4 2 3 2 5 5 4 3 4 5 5 5 5 4 3 2 2 3 3 4 4 5 5 5 5 4 4 4 4 3 3 3 2 2 2 2 1 2 2 2 1
0 2 6 4 1 2 2 2 4 3 3 4 4 7 5 5 5 5 5 4 3 4 4 5 5 5 5 4 4 4 3 3 3 2 2 2 1 1 1 1 2 2 1 1
0 2 3 6 5 1 2 3 5 3 3 3 3 9 4 3 3 3 3 3 3 3 3 4 4 5 5 5 4 4 4 3 3 2 2 2 1 1 1 1 2 2 2 2
1 2 3 7 5 3 1 1 2 3 3 3 4 8 3 2 1 0 2 3 3 3 3 3 4 4 4 4 4 4 4 3 3 2 2 2 1 2 2 2 2 2 2 2
1 2 4 6 7 4 5 4 2 3 3 4 7 9 7 3 3 2 2 4 4 4 4 4 3 3 3 3 4 4 3 3 3 2 2 2 2 3 3 2 2 2 2 2
2 2 4 7 9 6 7 8 5 5 6 7 8 7 9 6 5 4 4 4 5 4 4 4 4 4 4 3 3 3 3 3 3 3 3 3 3 2 2 2 2 2 2 3
2 2 3 6 6 6 6 7 7 6 5 6 5 8 6 3 2 3 4 5 6 5 5 5 5 5 5 4 4 3 3 3 3 3 4 3 2 2 2 2 2 2 2 2
2 1 1 5 6 5 5 7 7 5 4 5 6 7 3 2 3 5 6 6 6 6 5 6 6 5 5 5 4 4 4 3 3 3 3 3 3 3 3 2 2 2 1 1
4 3 2 3 3 5 7 3 4 4 4 4 4 4 3 3 2 2 3 5 4 5 5 5 5 5 4 3 3 3 3 3 3 3 3 3 3 3 2 2 2 2 1 1
7 5 2 2 3 7 6 4 2 3 5 3 3 2 1 2 3 2 2 3 4 5 4 4 5 4 4 4 4 4 3 3 3 4 4 3 3 3 3 3 3 2 1 2
2 3 3 2 3 5 6 5 3 1 4 2 1 2 2 2 0 4 3 2 2 2 2 3 4 4 4 4 4 4 4 3 4 4 4 3 2 3 4 4 3 1 1 2
2 1 3 3 4 7 5 6 3 1 6 6 3 3 4 4 4 3 2 2 2 2 2 3 5 4 4 4 5 4 4 5 4 3 2 2 2 3 3 2 2 1 1 1
3 2 2 2 4 7 5 4 1 4 5 4 4 3 3 3 1 1 2 2 2 2 2 3 4 3 3 4 5 5 5 4 2 2 2 1 1 1 1 1 1 1 1 1
3 3 3 5 7 5 4 4 4 3 4 4 3 4 3 2 2 1 1 2 2 2 2 2 4 3 3 4 5 6 4 3 3 2 1 1 1 1 1 1 0 0 0 1
4 1 2 6 8 8 8 6 5 5 5 6 5 4 2 3 3 2 2 2 2 2 3 3 4 4 3 3 4 4 3 3 4 3 1 1 1 0 1 0 1 1 1 2
6 3 4 7 9 9 7 5 7 7 6 5 5 4 2 2 3 2 2 2 2 2 2 3 4 4 4 3 3 3 3 4 4 3 2 1 1 0 0 1 1 2 3 3
6 7 6 8 7 6 10 9 8 7 7 6 5 4 2 2 3 2 2 2 2 2 2 3 3 3 3 3 3 3 4 5 4 2 2 1 1 0 0 1 2 2 3 5
Wind_Direction
45 62 270 235 202 209 213 228 269 272 272 155 239 256 263 236 201 214 211 201 200 203 192 161 149 146 149 154 163 173 175 179 164 163 168 172 187 186 169 175 168 131 123 124
30 316 247 228 194 194 210 244 270 290 324 180 250 278 268 225 216 218 216 209 204 194 170 161 151 152 162 167 173 180 184 181 179 180 171 162 150 151 154 152 103 130 131 138
207 255 273 144 315 250 244 207 232 248 344 26 6 311 285 268 239 228 223 219 205 195 189 182 172 176 174 178 182 180 183 181 177 166 129 104 87 75 79 73 5 329 127 148
260 277 299 307 268 191 266 243 213 195 108 295 55 281 284 260 263 238 232 228 221 203 193 188 182 183 186 182 165 166 163 159 161 155 150 150 156 171 193 190 199 306 4 169
279 280 298 278 261 194 232 340 103 114 128 32 358 209 283 306 262 253 240 232 224 206 195 192 187 186 177 155 141 139 136 139 142 144 152 151 160 171 159 137 130 86 358 342
263 272 232 246 281 171 130 59 51 49 67 338 251 188 276 246 237 257 242 226 216 202 192 187 175 160 147 140 139 135 125 131 138 145 148 152 164 166 153 159 161 163 270 304
327 316 286 220 16 22 67 74 26 1 6 259 265 219 251 254 245 243 245 228 208 190 182 176 170 165 160 155 149 141 139 150 145 137 153 162 173 174 177 186 184 188 210 242
329 305 299 283 193 193 168 137 156 212 234 274 297 239 254 260 294 304 264 213 186 178 174 173 170 161 160 157 153 150 155 160 149 149 165 151 156 169 186 191 192 198 210 230
247 275 299 301 277 146 143 169 168 144 196 270 275 279 299 308 344 347 2 151 185 173 166 164 154 150 154 155 161 164 162 165 163 164 160 145 156 165 189 205 204 211 219 225
192 268 290 303 36 24 126 141 98 116 173 258 283 277 263 276 271 276 256 228 207 171 159 155 148 151 150 152 153 157 157 162 163 160 165 159 168 184 191 185 222 231 238 233
160 231 305 341 328 259 59 82 100 120 163 181 266 271 240 234 231 226 229 215 197 185 172 163 156 151 139 136 139 143 142 142 146 163 157 157 182 188 190 207 237 237 243 231
353 123 284 281 281 270 179 169 146 156 236 196 214 268 285 241 232 212 218 194 174 173 160 150 147 141 140 144 147 153 158 160 170 165 155 169 180 186 193 229 251 233 233 238
12 85 345 334 335 356 13 176 158 139 134 180 207 265 307 7 1 242 193 173 160 157 151 139 138 144 154 154 155 160 169 175 172 154 154 165 196 210 222 236 249 242 242 258
85 147 187 228 255 277 284 276 219 148 174 227 233 258 288 283 252 244 205 181 170 165 162 153 153 156 154 162 165 167 172 172 167 165 176 195 223 228 234 243 254 255 245 251
74 225 247 262 270 269 267 268 246 220 214 215 248 256 269 259 231 211 186 172 168 177 178 178 178 171 159 161 171 176 179 176 172 179 200 222 231 231 231 243 257 266 251 245
25 259 283 286 282 281 275 274 259 247 239 236 259 272 273 271 193 176 177 174 181 193 195 190 188 180 178 181 180 181 194 192 177 193 216 226 224 225 227 237 243 252 264 263
285 225 282 276 297 312 272 248 237 238 232 209 234 261 298 288 223 204 192 185 194 199 194 190 193 195 193 191 185 188 198 192 185 204 222 225 219 223 230 227 229 246 268 290
198 190 211 274 327 257 248 247 236 239 249 229 247 268 264 252 254 220 182 182 201 206 202 199 192 192 194 187 179 178 171 176 189 211 229 230 219 222 229 226 233 252 255 269
190 179 191 194 250 274 286 288 243 229 267 247 240 271 8 71 45 326 232 206 214 210 201 202 194 187 180 180 177 168 180 186 195 214 228 232 220 221 228 232 237 239 246 277
120 159 174 202 237 253 268 307 303 135 282 315 291 235 159 105 38 265 242 225 227 205 185 181 169 164 175 182 162 162 185 193 211 222 226 224 214 215 223 227 231 229 228 257
342 304 205 218 244 265 288 322 21 108 272 309 284 243 201 208 223 240 198 191 175 172 169 160 160 170 185 171 156 169 186 207 217 215 216 217 209 205 205 203 206 207 237 275
252 247 228 198 232 261 335 3 45 260 294 305 294 273 235 248 278 208 174 163 147 137 141 150 155 172 171 158 159 175 202 213 196 179 190 200 190 184 145 146 194 189 192 285
250 214 226 218 234 268 314 285 284 286 296 298 297 291 238 229 240 234 198 170 167 162 159 152 157 161 164 167 170 186 206 184 160 156 167 166 127 106 116 142 160 312 229 248
279 284 263 278 277 294 299 296 308 314 304 302 296 283 237 227 208 200 183 177 172 170 167 156 154 161 175 180 187 198 186 160 150 154 167 151 119 45 39 100 189 220 254 262
253 280 282 277 286 303 298 311 319 322 324 321 319 303 245 188 201 197 188 187 182 173 168 163 166 172 185 181 180 177 157 145 145 154 162 152 154 164 358 325 258 245 245 225
218 212 226 252 259 268 285 299 307 304 303 300 307 313 285 187 184 180 184 186 172 161 153 152 155 159 167 165 169 163 154 151 149 155 166 164 173 210 242 307 325 308 262 277